Tracking 22441 objects as of 28-Feb-2021
HD Live streaming from Space Station
objects crossing your sky now

DELTA 1 DEB

Track DELTA 1 DEB now!
10-day predictions


NORAD ID: 21283
Int'l Code: 1975-052U
Perigee: 1,092.7 km
Apogee: 1,465.5 km
Inclination: 99.8 °
Period: 111.0 minutes
Semi major axis: 7650 km
RCS: 0.1668 m2 (medium)
Launch date: June 12, 1975
Source: United States (US)
Launch site: AIR FORCE WESTERN TEST RANGE (AFWTR)

Note: This is SATELLITE DEBRIS
aabbcc
Your satellite tracking list
Your tracking list is empty




NASA's NSSDC Master Catalog

Two Line Element Set (TLE):
1 21283U 75052U   21059.60924951  .00000342  00000-0  11469-2 0  9990
2 21283  99.7933 334.0138 0243659 318.7101 158.9941 12.97494563411845
Source of the keplerian elements: AFSPC